Theta_e
330 317 321 317 308 305 301 308 318 318 320 329 329 327 323 324 320 311 335 345 353 355 356 358 362 359 357 356 354 352 351 351 351 350 351 351 351 351 351 351 351 349 350 350 351 350 348 348 349
322 315 311 306 304 299 302 312 313 317 321 326 332 330 326 322 331 333 337 351 353 355 355 356 363 360 357 356 354 352 352 351 351 351 351 352 352 352 352 352 352 352 351 351 350 349 348 347 346
321 315 306 300 300 300 305 313 315 319 324 324 326 329 330 322 334 333 344 353 354 354 353 356 362 360 357 356 354 352 352 352 352 352 353 353 353 353 354 353 352 352 350 349 348 347 347 347 347
309 306 301 298 296 300 313 317 318 320 320 324 326 324 330 335 333 339 351 352 351 352 352 360 362 360 357 356 355 353 352 353 353 353 353 353 353 353 353 352 352 351 349 348 347 346 347 347 347
304 299 295 292 295 299 311 320 318 316 317 320 325 320 324 336 344 348 350 351 348 350 353 357 361 360 357 356 355 354 354 353 353 353 354 354 353 353 353 352 351 349 348 347 345 345 345 346 347
301 298 293 292 296 301 314 317 317 316 316 318 322 322 322 339 342 345 350 348 350 350 353 356 360 360 358 357 356 355 355 354 353 353 353 353 353 353 352 351 351 349 348 347 347 347 348 350 351
299 295 293 295 297 298 314 318 315 313 314 314 321 317 323 332 338 345 347 349 350 351 351 352 354 355 358 358 357 356 355 355 355 355 355 353 353 353 352 352 351 350 350 349 349 350 351 352 353
300 297 295 293 296 304 315 318 316 316 314 324 323 317 318 327 337 343 345 347 349 350 351 349 351 351 351 352 356 356 356 355 355 354 353 353 352 352 352 353 353 351 351 352 352 353 354 354 354
301 295 292 294 297 304 315 314 320 323 318 322 327 322 327 332 336 340 341 341 344 346 348 351 351 348 349 349 353 356 356 356 356 354 354 353 348 348 350 352 352 353 353 354 355 355 356 355 355
298 294 296 301 302 299 315 316 317 318 318 317 320 327 330 331 337 335 335 336 339 342 344 347 348 349 348 351 348 349 349 349 350 350 348 347 345 344 350 352 354 354 355 357 357 356 356 354 350
296 295 299 302 302 304 312 314 319 316 313 317 317 322 329 331 333 334 334 335 336 341 344 346 347 347 346 346 346 348 346 345 348 347 346 344 345 342 345 345 346 347 352 350 350 349 348 347 347
294 299 300 300 301 300 309 316 317 318 317 321 320 325 330 330 330 331 332 334 332 337 342 346 346 346 345 344 346 345 345 344 345 343 343 341 340 339 339 342 343 343 345 346 346 346 345 345 346
295 299 300 301 298 300 305 314 316 317 322 324 323 325 326 328 331 332 334 336 334 334 337 342 345 344 344 340 344 343 343 344 343 341 341 341 338 336 337 338 340 342 344 344 343 344 343 339 340
298 298 300 298 300 299 302 304 311 318 322 323 323 323 325 326 328 331 334 334 334 334 334 339 340 341 342 341 341 341 342 341 340 339 340 341 340 338 337 336 336 340 342 343 342 341 339 338 338
298 297 298 298 299 298 301 299 301 307 316 321 323 326 332 330 331 330 334 334 336 335 335 337 337 338 338 339 339 335 337 338 337 337 338 340 341 339 338 336 334 334 335 335 335 333 333 333 337
296 293 291 297 299 301 300 294 301 303 311 317 319 333 337 340 335 333 332 333 331 335 334 337 339 336 335 338 337 336 336 336 337 336 337 339 340 340 338 338 338 339 336 337 333 334 332 335 334
292 288 290 296 298 299 298 295 301 303 308 318 326 334 336 337 339 340 339 338 332 334 334 335 336 338 338 339 340 340 340 341 342 341 340 340 341 344 340 340 340 341 339 335 337 333 334 329 329
287 288 291 292 298 297 295 296 299 301 320 327 330 333 334 335 335 340 342 343 341 343 338 338 339 341 341 343 347 346 342 340 341 339 341 346 345 345 342 339 336 336 334 331 330 330 330 327 325
295 293 293 296 299 296 297 297 300 300 313 325 328 331 332 333 334 338 340 341 342 343 344 344 344 345 345 345 344 341 337 336 334 335 338 338 338 339 337 338 337 334 332 331 332 328 326 325 325
294 292 293 297 300 297 297 297 299 300 313 325 326 329 329 327 331 333 335 336 338 338 339 340 342 343 344 343 342 339 338 334 332 333 334 335 336 336 334 333 332 333 332 331 331 328 325 324 324
293 292 293 294 298 298 296 294 296 300 303 322 327 329 331 331 330 330 332 333 335 335 336 336 337 339 342 342 340 338 337 335 330 329 331 332 333 332 331 331 330 328 326 325 324 326 327 324 324
290 297 298 297 293 290 295 287 293 295 301 313 320 323 327 329 330 330 330 330 333 333 334 334 334 336 339 340 338 336 333 330 331 328 329 330 331 330 328 324 323 322 321 320 322 321 321 323 319
295 299 297 297 292 289 291 288 292 295 295 305 316 321 324 326 327 327 329 329 331 332 331 330 330 332 333 334 335 333 331 329 327 324 322 322 322 323 321 319 315 314 315 314 315 316 315 316 315
301 297 295 292 289 286 290 290 290 292 297 298 310 322 322 324 326 327 328 330 329 326 326 327 327 325 328 330 331 332 329 322 319 318 318 317 314 315 314 314 313 312 313 312 312 313 314 313 311
297 291 285 285 284 286 292 288 292 297 299 302 306 319 323 325 326 326 327 326 323 321 322 323 324 320 320 320 320 321 326 321 316 313 312 311 311 311 312 311 311 310 312 311 310 309 309 309 310
294 292 286 281 282 288 291 287 294 301 303 301 307 315 323 324 326 327 326 323 321 319 319 319 319 316 315 315 313 316 319 316 313 311 311 311 311 310 310 309 308 308 309 311 309 307 307 308 310
296 290 295 289 288 285 289 292 297 300 301 307 304 316 321 323 326 325 323 321 318 317 317 317 317 314 314 314 315 314 314 313 312 311 310 310 310 311 307 306 305 306 306 306 303 302 303 306 308
299 300 292 287 282 281 286 288 290 295 299 304 307 313 320 323 325 322 321 319 317 318 317 316 315 315 316 315 315 314 313 313 312 311 309 308 307 306 306 305 305 304 304 303 302 301 303 305 304
296 293 292 292 289 287 286 289 294 295 298 302 309 317 321 322 322 321 319 318 319 319 318 315 315 315 315 315 314 313 313 312 312 311 309 307 305 305 305 305 305 304 304 303 302 302 305 303 301
297 292 290 286 286 287 286 288 301 306 307 308 314 318 319 321 321 319 318 319 319 319 318 316 315 317 316 316 316 315 314 312 310 309 307 306 305 305 305 305 305 305 304 303 302 304 303 301 300
Wind_Speed
3 3 3 4 4 5 3 4 3 3 7 3 4 2 2 4 2 5 3 5 15 14 12 13 16 17 17 16 15 14 14 15 15 15 16 16 15 15 15 14 13 13 13 13 13 12 12 11 11
1 4 3 4 5 4 4 3 5 9 8 4 8 3 3 3 4 7 7 8 12 12 9 10 16 16 16 15 14 14 14 14 15 15 15 15 14 14 13 13 12 11 11 10 10 10 10 9 8
2 2 4 5 4 5 5 5 10 7 6 8 9 4 1 4 5 8 7 12 15 12 7 10 16 15 16 15 14 14 14 14 14 14 14 13 13 12 11 11 10 9 9 8 8 7 7 6 6
2 4 5 6 3 4 9 10 12 6 2 2 7 10 4 5 12 8 15 15 16 8 6 13 15 15 16 15 14 12 13 13 13 13 12 12 11 11 9 9 8 7 7 6 4 4 4 4 3
5 3 4 2 3 2 2 16 3 6 5 1 1 4 5 3 13 18 17 14 17 11 6 10 14 15 16 15 14 14 13 12 12 12 12 11 10 10 9 8 7 6 5 3 1 0 1 1 1
5 4 5 3 5 4 2 2 3 5 3 2 6 7 3 7 15 13 13 12 13 13 6 7 12 13 14 15 15 14 13 13 12 12 12 11 10 9 9 8 7 6 4 3 3 4 4 5 5
6 4 1 3 7 6 2 3 3 4 4 3 4 6 3 5 8 15 13 11 10 13 8 6 7 11 14 13 14 13 13 12 11 10 10 11 10 9 8 7 7 6 5 5 6 7 7 6 8
6 5 0 1 4 4 4 3 3 1 2 4 1 6 7 8 13 11 11 9 11 11 11 7 7 6 6 6 14 13 13 13 12 12 11 10 10 9 8 7 7 8 8 9 9 9 9 8 9
4 5 1 3 1 2 1 3 3 0 1 2 2 2 7 19 15 12 10 7 11 11 11 11 10 7 7 6 8 13 14 13 12 11 11 7 4 5 7 7 9 10 10 10 10 10 10 9 10
5 4 8 5 4 1 6 5 3 1 1 2 0 6 19 21 17 15 15 13 12 13 14 13 12 12 9 8 6 5 5 4 4 4 5 4 4 4 5 7 10 11 11 11 12 11 11 9 4
3 6 6 6 4 5 7 3 4 4 5 11 14 13 19 19 16 16 14 18 22 16 12 15 13 9 9 7 5 4 3 3 3 5 4 3 3 3 2 2 3 3 7 4 6 5 3 5 5
2 6 5 4 2 2 3 2 5 8 9 5 4 12 20 21 18 16 16 14 15 13 13 13 12 10 8 3 6 5 5 4 4 4 5 3 3 4 4 3 4 4 3 5 4 4 4 6 7
5 6 5 6 5 7 5 10 9 10 14 2 7 6 16 16 16 15 12 9 11 13 14 13 12 11 8 5 4 4 6 5 4 4 4 4 4 4 3 4 4 4 3 4 4 5 5 5 6
4 4 8 4 9 6 10 8 5 11 0 5 10 6 7 10 13 11 13 13 13 13 14 11 13 11 9 7 6 5 4 4 4 4 5 6 4 4 4 5 4 4 4 4 4 4 4 5 4
3 5 6 3 3 6 5 4 10 6 11 9 5 6 9 10 9 13 15 15 14 12 13 13 13 11 11 9 5 4 4 4 4 4 6 6 7 6 5 4 4 4 3 4 4 3 2 4 4
5 4 3 6 3 4 4 9 10 6 10 10 8 7 6 3 7 9 11 14 11 9 12 12 12 10 9 8 6 3 4 4 4 5 4 6 6 6 2 1 2 2 0 1 1 2 3 3 4
7 3 2 9 5 4 3 8 8 4 9 9 8 8 8 6 3 2 7 9 13 13 9 11 9 9 8 6 4 4 1 1 2 1 3 5 6 4 4 3 3 4 3 3 2 3 2 2 2
4 2 3 4 6 1 5 11 9 4 11 14 11 12 11 9 4 4 6 7 10 9 11 11 9 9 9 6 4 5 5 5 4 3 3 4 3 5 6 4 4 4 4 4 4 4 4 2 1
3 3 5 6 3 3 9 12 17 6 7 10 12 13 11 8 3 3 5 7 9 7 10 11 10 8 7 3 4 4 4 4 3 4 6 7 7 8 6 5 4 4 4 4 4 3 5 4 3
5 4 11 8 5 6 12 13 15 9 17 21 17 15 13 8 8 6 5 4 5 6 7 7 9 7 6 4 4 5 6 3 4 4 6 6 8 8 7 5 5 6 4 5 4 2 1 1 3
6 5 8 9 10 6 6 8 6 3 4 12 13 14 16 22 18 11 9 7 7 7 6 6 6 8 7 10 9 9 9 5 3 5 4 5 7 7 5 7 4 6 4 3 4 4 5 3 2
6 9 12 10 1 6 3 7 7 3 6 8 9 10 16 13 9 9 9 9 10 7 6 6 6 7 7 8 9 10 8 7 3 4 3 5 5 7 6 6 6 6 4 5 5 5 4 4 4
11 5 8 11 6 2 4 4 10 2 3 8 12 10 12 7 8 13 13 11 8 10 10 7 7 6 7 7 9 9 10 8 7 5 8 7 5 7 6 7 6 6 4 4 6 6 6 4 2
5 4 1 4 3 4 8 8 7 5 7 6 8 12 10 10 9 8 7 9 8 6 8 9 10 6 7 9 9 13 15 12 8 6 7 6 3 4 6 6 6 5 5 6 4 4 6 5 4
5 5 5 6 2 8 7 4 9 7 9 10 13 18 17 16 14 12 15 12 10 8 8 9 12 8 7 10 9 11 12 11 10 7 5 6 3 3 5 5 6 5 4 5 5 6 6 5 4
7 11 8 7 4 9 3 7 9 13 11 6 11 15 15 17 17 18 15 12 11 11 9 11 12 10 9 10 9 8 11 7 6 5 5 5 4 4 4 6 6 6 6 5 6 4 4 5 5
4 4 8 4 4 2 6 9 6 6 9 8 10 9 18 21 21 21 16 12 11 10 11 13 13 10 10 11 11 9 9 8 8 7 6 5 5 4 6 6 6 6 6 6 6 4 5 5 4
8 6 6 1 4 8 5 6 7 7 11 9 5 13 13 15 17 17 16 14 10 9 7 7 11 14 12 11 10 10 8 9 8 7 7 7 6 4 7 6 6 6 6 6 6 4 3 5 4
5 3 3 3 6 10 11 9 7 8 9 10 8 10 19 21 21 19 14 12 11 9 10 10 11 14 11 10 9 11 8 8 8 8 7 7 7 6 6 6 6 6 6 6 5 5 4 5 5
5 10 9 3 8 4 2 10 4 4 3 5 7 9 10 12 12 12 9 7 7 10 11 11 9 12 15 12 13 11 10 7 8 8 7 7 8 6 6 5 6 6 5 6 6 5 5 5 5
Wind_Direction
269 153 149 57 62 67 360 327 106 295 326 1 83 148 147 21 155 209 157 152 139 150 155 158 147 140 140 140 138 135 134 133 131 129 126 123 120 119 117 115 113 110 107 103 96 93 95 96 95
256 126 60 104 70 55 294 295 182 219 213 151 84 112 58 46 95 115 113 151 138 142 148 152 147 143 145 144 141 139 137 135 134 130 126 123 123 122 119 117 114 111 106 100 95 94 93 92 95
263 110 86 95 128 149 172 241 255 215 198 156 134 106 104 146 106 157 129 139 140 147 150 161 152 148 148 145 144 143 141 139 136 133 132 130 129 127 121 120 118 113 107 103 100 97 93 92 101
26 13 33 80 180 224 169 195 231 128 307 304 141 119 96 235 151 142 135 141 150 147 151 161 153 148 150 149 146 144 144 146 145 141 137 134 131 127 123 123 121 120 117 115 116 108 105 109 106
33 51 38 47 282 224 204 186 208 323 247 159 174 102 68 12 109 134 139 146 156 156 156 156 155 151 154 153 153 153 154 156 155 149 144 140 137 134 135 138 142 141 141 147 162 61 309 336 338
29 93 46 24 288 300 2 314 16 266 243 70 79 99 54 122 128 141 133 138 156 160 148 154 158 156 160 161 162 163 162 165 166 160 156 154 155 155 157 165 169 169 177 194 231 261 279 297 299
112 78 181 253 297 334 156 120 298 301 322 38 171 77 81 165 150 140 137 138 154 165 156 153 156 169 170 168 170 172 171 171 171 171 167 169 172 174 180 187 191 199 214 229 247 259 266 279 293
107 92 126 265 302 360 12 341 261 208 300 274 164 152 178 186 154 131 129 135 157 169 170 165 159 162 164 179 179 182 181 182 178 181 180 179 184 188 199 210 216 219 230 238 244 256 265 272 281
115 69 177 259 215 237 1 88 240 57 286 359 1 120 161 143 142 133 126 123 170 178 182 181 176 172 170 174 191 190 193 191 191 189 191 186 182 203 216 223 230 238 245 252 258 264 273 282 281
97 121 206 223 162 254 186 163 217 255 108 293 157 82 126 144 153 155 162 165 179 183 191 190 187 188 177 183 191 183 197 187 192 194 190 184 194 211 222 242 250 254 261 266 267 270 280 293 285
132 185 201 260 227 203 200 208 240 111 247 223 186 154 149 160 168 170 178 176 186 183 185 190 191 191 187 190 177 183 199 184 195 201 193 191 197 229 237 256 262 264 264 266 273 281 264 254 259
159 241 225 271 146 103 203 172 240 175 235 56 194 161 154 172 174 179 184 188 180 179 195 188 187 187 197 198 191 187 187 186 203 200 198 186 208 220 228 232 237 242 233 253 249 258 248 253 258
171 251 272 255 280 219 204 209 212 220 236 290 154 176 171 178 186 182 186 190 179 182 194 194 187 186 188 213 198 193 194 196 196 189 203 198 205 219 227 243 241 238 224 231 254 267 277 266 264
199 245 282 284 286 226 164 235 154 252 192 227 164 195 143 176 181 172 179 186 195 188 192 187 194 193 179 198 198 207 199 190 186 187 212 210 203 217 223 236 242 250 215 226 234 249 271 278 273
261 317 340 292 295 264 161 157 215 235 163 210 133 163 144 179 193 193 188 195 188 190 182 186 194 194 184 190 189 211 194 185 193 203 209 215 210 210 223 246 268 286 291 288 276 293 294 301 327
3 50 344 289 5 288 130 259 258 227 156 206 164 148 124 133 189 205 183 181 166 165 186 178 188 189 177 186 187 199 218 200 206 205 206 221 234 224 228 237 343 288 241 337 51 56 60 42 8
4 244 218 308 215 252 173 261 266 147 158 178 163 150 150 134 109 103 160 167 172 179 170 173 174 175 169 173 172 203 187 51 348 184 231 223 213 156 95 66 19 28 45 31 30 67 97 64 336
239 306 296 239 292 51 301 269 271 162 167 167 160 160 163 155 172 151 115 109 135 147 157 165 167 164 158 159 146 101 76 60 37 29 29 58 55 99 99 82 70 72 67 356 8 61 54 113 277
279 255 254 261 219 337 269 266 272 204 160 168 171 167 166 151 185 131 101 103 108 96 125 139 140 162 147 130 137 122 97 85 57 47 66 75 81 76 67 61 51 37 50 65 52 17 344 2 348
242 269 277 290 249 158 271 259 273 178 183 182 176 175 170 158 179 167 146 116 89 116 103 118 127 138 130 117 124 123 121 94 85 61 46 49 67 69 78 86 69 52 3 29 19 344 9 360 22
229 206 268 232 310 212 260 284 286 176 110 191 186 183 175 176 172 170 164 143 121 113 115 113 118 121 117 115 106 104 114 114 80 67 71 58 74 63 59 70 59 73 56 49 26 25 32 21 335
264 208 246 273 355 257 144 268 294 266 138 198 186 187 196 186 174 161 158 149 146 138 120 125 119 115 118 128 127 142 133 127 83 101 95 80 69 77 70 71 68 59 56 41 34 26 24 29 20
234 229 219 247 237 203 279 121 267 300 159 214 203 216 209 203 192 175 163 155 148 146 146 132 115 104 109 117 129 120 112 109 117 110 106 86 64 78 76 72 68 64 56 45 43 32 29 25 32
243 320 82 46 115 235 223 177 261 195 206 183 227 213 186 174 173 165 143 143 143 139 135 131 121 107 108 118 114 124 123 129 127 123 110 99 79 76 67 71 70 63 54 47 43 36 40 20 18
164 74 316 311 305 235 228 176 223 229 224 207 194 207 188 172 170 167 166 158 150 150 139 124 120 114 110 106 107 119 127 125 126 133 126 119 98 65 54 61 53 45 43 49 40 38 30 13 23
188 157 167 241 248 285 315 237 254 222 225 197 201 206 175 172 171 173 169 159 159 153 141 127 123 117 110 113 105 113 124 129 125 126 123 112 102 95 76 68 61 50 45 46 38 34 21 17 30
250 170 206 207 294 332 229 288 285 220 240 227 209 180 188 183 174 166 157 160 159 152 139 132 129 119 121 127 125 120 121 125 129 122 112 114 108 105 83 68 59 50 50 42 30 25 24 30 30
186 183 252 44 215 252 251 253 238 234 245 250 221 191 175 165 162 161 160 160 153 138 134 131 139 142 144 139 131 127 128 128 131 128 120 114 109 94 81 71 60 51 50 43 44 20 16 54 27
331 290 253 233 161 247 267 258 216 231 259 254 234 194 173 169 169 160 155 150 153 152 156 159 146 145 139 150 134 133 135 141 137 130 136 121 112 100 83 78 66 46 37 32 36 9 50 54 33
29 21 48 44 305 262 223 261 253 227 220 186 120 116 115 135 140 134 130 142 169 169 163 165 167 163 158 160 144 145 138 151 141 142 137 134 123 111 111 98 80 49 26 22 22 57 52 48 30